www.pogodaiklimat.ru

Погода и климат >> Архив погоды >> Нигер >> Gaya


ПОГОДА в Gaya

  • Прогноз погоды в Gaya
  • Монитор погоды в Gaya
  • Климат города

АРХИВ ПОГОДЫ в Gaya

Время (UTC), дата Ветер
(напр.,м/с)
 
Видим.   Явления Облачность Т
(С)
Тd
(С)
f
(%)
Тe
(С)
Тes
(С)
Комфортность P
(гПа)
Po
(гПа)
Тmin
(С)
Tmax
(С)
R
(мм)
R24
(мм)
S
(см)
03 14.09 Ю 4 10 км зарница {дождь} 10/1 1200 м
[Cb cap Ac As]
+24.0 +21.7 87 +31 +31 очень
душно
1008.7 986.3
06 14.09 ЮЗ 4 15 км {дождь} 9/0
[Ac As Ci sp]
+23.0 +21.5 91 +31 +31 очень
душно
1009.0 986.4 +22.2 1
09 14.09 штиль 0 15 км 9/0
[Ac As Ci sp]
+25.8 +22.7 83 +34 +41 очень
душно
1010.0 987.4
12 14.09 штиль 0 15 км 9/1 1200 м
[Cu hum Ac lent Ci sp]
+29.0 +23.9 74 +40 +55 опасность
солнечного
удара
1009.6 987.1
15 14.09 штиль 0 15 км 9/0
[Ac lent Cs]
+31.2 +24.4 67 +43 +52 опасность
перегрева
1008.2 985.6
18 14.09 штиль 0 15 км 9/0
[Cs]
+30.0 +25.3 76 +44 +44 опасность
перегрева
1008.8 986.1 +31.5
21 14.09 штиль 0 15 км 9/0
[Cs]
+28.6 +25.7 84 +42 +42 опасность
перегрева
1010.1 987.5
03 15.09 штиль 0 15 км 9/0
[Cs]
+26.8 +25.7 94 +40 +40 очень
душно
1009.4 986.9
06 15.09 ЮЗ 10 10 км гроза, ливневой дождь 9/1 1200 м
[Cb cap Ac As Ci sp]
+23.4 +23.4 100 +33 +33 очень
душно
1010.2 987.5 +22.0 17
09 15.09 штиль 0 15 км гроза, ливневой дождь 10/3 750 м
[Cb cap Ac As]
+23.8 +23.4 98 +32 +35 очень
душно
1013.0 990.2
12 15.09 Ю 2 15 км в посл. час дождь {гроза} 9/1 1000 м
[Frnb Ac As Cs]
+25.5 +24.1 92 +35 +46 очень
душно
1011.2 988.6 2
15 15.09 Ю 4 15 км 9/1 1200 м
[Cu hum Cs]
+28.8 +24.1 76 +40 +45 очень
душно
1009.5 986.9
18 15.09 Ю 2 15 км 9/1 1200 м
[Cb calv Cs]
+27.8 +24.5 82 +39 +39 очень
душно
1009.1 986.4 +30.0 2
21 15.09 штиль 0 10 км 9/0
[Ac trans Cs]
+27.0 +25.6 92 +40 +40 очень
душно
1011.7 988.9
03 16.09 Ю 2 10 км 6/0
[Ci fib]
+25.5 +24.8 96 +36 +36 очень
душно
1010.3 987.6
06 16.09 штиль 0 15 км {дождь} 9/3 1200 м
[Cb cap Ac cast Ci sp]
+25.0 +24.3 96 +35 +35 очень
душно
1011.4 988.7 +24.0 2
09 16.09 штиль 0 15 км слабый ливневой дождь, в посл. час гроза 9/1 1000 м
[Sc Ac As Ci sp]
+25.8 +24.6 93 +36 +44 очень
душно
1013.0 990.2
12 16.09 штиль 0 15 км {дождь} 9/1 1200 м
[Cu hum Ac lent Cs]
+28.0 +25.2 85 +41 +55 опасность
перегрева
1011.3 988.6 4
15 16.09 штиль 0 15 км 9/1 1200 м
[Cu hum Ac lent Cs]
+29.6 +23.7 71 +41 +47 опасность
перегрева
1008.4 985.8
18 16.09 штиль 0 15 км 9/0
[Ac lent Cs]
+28.4 +25.1 82 +41 +41 опасность
перегрева
1009.4 986.7 +30.8 4
21 16.09 штиль 0 15 км зарница 9/1 1200 м
[Cb cap Ac lent Cs]
+27.0 +24.2 85 +38 +38 очень
душно
1010.4 987.7
03 17.09 штиль 0 15 км в посл. час дождь 9/0
[Ac As Ci sp]
+22.6 +21.7 95 +30 +30 очень
душно
1009.5 986.8
06 17.09 штиль 0 15 км {дождь} 9/1 900 м
[Sc Ac As Ci sp]
+22.4 +21.8 96 +30 +30 очень
душно
1010.5 987.7 +20.5 21
09 17.09 ЮЗ 2 15 км 9/1 1000 м
[Cu hum Cs]
+25.5 +23.4 88 +34 +43 очень
душно
1012.5 989.8
12 17.09 Ю 4 15 км 9/0
[Cs]
+28.5 +21.7 67 +31 +42 душно 1010.9 988.1
15 17.09 штиль 0 15 км 9/0
[Cs]
+31.0 +20.6 54 +38 +48 очень
душно
1008.4 985.7
18 17.09 штиль 0 15 км 9/0
[Cs]
+29.5 +23.8 71 +40 +40 очень
душно
1008.5 985.8 +31.0
21 17.09 Ю 4 15 км 6/0
[Ci fib]
+28.0 +23.7 77 +38 +38 очень
душно
1008.3 985.7
03 18.09 Ю 4 10 км 6/0
[Ci fib]
+26.0 +24.6 92 +37 +37 очень
душно
1008.2 985.7
06 18.09 ЮЗ 4 10 км 6/0
[Cs]
+25.5 +24.1 92 +35 +35 очень
душно
1007.9 985.3 +24.5
09 18.09 штиль 0 15 км 9/1 900 м
[Sc Ac lent Cs]
+27.0 +23.9 83 +37 +45 очень
душно
1010.9 988.3
12 18.09 штиль 0 15 км 9/1 1200 м
[Cu hum Ac lent Cs]
+28.6 +24.9 80 +41 +55 опасность
перегрева
1010.0 987.4
15 18.09 штиль 0 15 км 9/0
[Ac lent Cs]
+30.2 +24.8 73 +43 +53 опасность
перегрева
1007.3 984.7
18 18.09 штиль 0 15 км 9/0
[Ac lent Cs]
+28.4 +25.0 82 +41 +41 опасность
перегрева
1007.5 984.9 +30.6
21 18.09 штиль 0 15 км 9/0
[Ac lent Cs]
+27.0 +25.0 89 +39 +39 очень
душно
1010.0 987.3
03 19.09 штиль 0 15 км 9/0
[Ac As Ci sp]
+23.5 +22.2 92 +30 +30 очень
душно
1008.2 985.5
06 19.09 штиль 0 15 км 9/0
[Ac As Ci sp]
+24.0 +21.6 86 +31 +31 очень
душно
1009.4 980.7 +21.2 2
09 19.09 ЮЗ 4 15 км 9/3 1200 м
[Cu hum Cs]
+27.0 +24.1 84 +37 +42 очень
душно
1012.2 989.5
12 19.09 ЮЗ 4 15 км 9/3 1200 м
[Cu hum Cs]
+30.5 +24.9 72 +44 +52 опасность
перегрева
1011.1 988.5
15 19.09 штиль 0 15 км 8/3 1200 м
[Cu hum Ci sp]
+32.5 +25.6 67 +47 +55 опасность
перегрева
1008.7 986.1
18 19.09 штиль 0 15 км 9/1 1200 м
[Cu hum Cs]
+30.5 +26.4 79 +47 +47 опасность
перегрева
1008.5 986.0 +33.5
21 19.09 Ю 4 10 км 6/0
[Ci fib]
+28.5 +25.0 81 +41 +41 опасность
перегрева
1010.5 987.9
03 20.09 Ю 4 10 км 6/0
[Ci fib]
+26.5 +25.2 93 +38 +38 очень
душно
1009.2 986.8
06 20.09 штиль 0 15 км 9/0
[Cs]
+26.0 +24.8 93 +37 +37 очень
душно
1009.5 987.0 +24.5
09 20.09 штиль 0 15 км 9/0
[Cs]
+30.4 +25.1 73 +44 +57 опасность
перегрева
1010.7 988.2
12 20.09 штиль 0 15 км 9/1 1200 м
[Cu hum Cs]
+33.0 +24.6 61 +46 +67 опасность
перегрева
1009.2 986.8
15 20.09 штиль 0 15 км 9/1 1200 м
[Cu hum Cs]
+34.2 +26.0 62 +50 +59 опасность
перегрева
1006.8 984.4
18 20.09 штиль 0 15 км 9/0
[Ac lent Cs]
+31.8 +24.6 66 +45 +45 опасность
перегрева
1006.4 983.9 +35.0
21 20.09 штиль 0 15 км 9/0
[Cs]
+30.4 +24.2 70 +42 +42 опасность
перегрева
1007.8 985.4

 

Местоположение метеостанции Gaya (Нигер): широта 11.88 долгота 3.45 высота над уровнем моря 203 м.

В архиве по умолчанию представлена погода в Gaya за последнюю неделю. Архивные данные за месяц целиком и за предыдущие месяцы, начиная с января 2011 года, Вы можете получить, выбрав интересующий диапазон дат из раскрывающегося списка и нажав кнопку "Ввод!".


*Определитесь, кто Вы:
робот инопланетянин человек

Внимание! Время в таблицах - всемирное. Для получения местного времени необходимо прибавить поправку, которая в Gaya равна 1 ч.

Смотрите также архив погоды в соседних городах и на ближайших метеорологических станциях:

Погода в Kandi (Бенин) (101 км)
Погода в Dosso (Нигер) (129 км)
Погода в Yelwa (Нигерия) (180 км)
Погода в Niamey (Нигер) (226 км)
Погода в Natitingou (Бенин) (285 км)
Погода в Birni-Nkonni (Нигер) (289 км)
Погода в Parakou (Бенин) (296 км)
Погода в Fada N`Gourma (Буркина-Фасо) (336 км)
Погода в Tillabery (Нигер) (337 км)
Погода в Niamtougou (Того) (348 км)

Пояснения к столбцам:

Ветер - указаны скорость ветра в м/с - средняя за 10 мин, порывы в срок и между сроками (в фигурных скобках) и направление, откуда дует ветер: С - северный, СВ - северо-восточный, В - восточный, ЮВ - юго-восточный, Ю - южный, ЮЗ - юго-западный, З - западный, СЗ - северо-западный.
Видимость - горизонтальная дальность видимости в метрах или километрах. При видимости от 1 до 10 км при отсутствии осадков обычно наблюдается дымка, при ухудшении видимости до 1 км и менее - туман. В сухую погоду видимость может ухудшаться дымом, пылью или мглою.
Явления - указаны атмосферные явления, наблюдавшиеся в срок или в последний час перед сроком; фигурными скобками обозначены явления, наблюдавшиеся между сроками (за 1-3 часа до срока); квадратными скобками обозначены град или гололедные отложения с указанием их диаметра в мм.
Облачность - указаны через наклонную черту общая и нижняя облачность в баллах и высота нижней границы облаков в метрах; квадратными скобками обозначены формы облаков: Ci - перистые, Cs - перисто-слоистые, Cc - перисто-кучевые, Ac - высококучевые, As - высокослоистые, Sc - слоисто-кучевые, Ns - слоисто-дождевые, Cu - кучевые, Cb - кучево-дождевые. Подробнее классификацию облаков см. в Атласе облаков (PDF).
T - Температура воздуха - температура, измеренная на высоте 2 м над землей.
Td - Температура точки росы - температура, при понижении до которой содержащийся в воздухе водяной пар достигнет насыщения.
f - Относительная влажность воздуха - влажноcть воздуха, измеренная на высоте 2 м над землей.
Te - Эффективная температура - температура, которую ощущает одетый по сезону человек в тени. Характеристика душности погоды. При расчете учитывается влияние влажности воздуха и скорости ветра на теплоощущения человека.
Tes - Эффективная температура на солнце - температура, которую ощущает человек, с поправкой на солнечный нагрев. Характеристика знойности погоды. Зависит от высоты солнца над горизонтом, облачности и скорости ветра. Ночью, в пасмурную погоду, а также при ветре 12 м/с и более поправка равна нулю.
P - Атмосферное давление - приведенное к уровню моря атмосферное давление.
Po - Атмосферное давление - измеренное на уровне метеостанции атмосферное давление.
Tmin - Минимальная температура - минимум температуры воздуха на высоте 2 м над землей.
Tmax - Максимальная температура - максимум температуры воздуха на высоте 2 м над землей.
R - Количество осадков - Количество выпавших осадков за период времени, мм. При наведении курсора мыши на число - период времени, за который выпало указанное количество осадков.
R24 - Количество осадков - Количество выпавших осадков за 24 часа, мм.
S - Снежный покров - Высота снежного покрова, см. При наведении курсора мыши на число - состояние снежного покрова и степень покрытия местности в баллах.